sat.trackr.live / text

‹ back to catalog

STARLINK-34168

NORAD 64079 · 2025-107R

PAYLOAD ACTIVE UNKNOWN

§ Identity

Operator
Country
US
Launch date
2025-05-21
Launch site
AFETR
Launch vehicle
Mass (kg)
RCS (m²)

Purposes: comms

External: N2YO · Heavens-Above · Gunter

§ Orbital elements

Epoch: 2026-05-24T09:44:16.092384Z

Period
94.27 min
Inclination
43.0005°
Eccentricity
0.0001339
Mean motion
15.27573007 rev/d
Perigee alt
482.2 km
Apogee alt
484.0 km
Semi-major
6,861.2 km
B*
3.7031e-4
RAAN
133.6489°
Arg perigee
273.3733°
Mean anomaly
86.6965°
Rev number
5,770

§ Raw data

STARLINK-341681 64079U 25107R   26144.40574181  .00009940  00000+0  37031-3 0  99962 64079  43.0005 133.6489 0001339 273.3733  86.6965 15.27573007 57704

JSON: /api/v1/satellites/64079 · /tle

For live sub-satellite position, see the globe view (requires WebGL).

§ Visibility from observer

Set your observer location to see the next 7 days of passes ≥ 10°. The values pass through the URL so the page stays shareable.

No JS? Fill the form by hand. The geolocation button needs JavaScript.